Location: Veytaux
(46.4185°N, 6.9320°E)
Time: 07:14:19
(UTC+00:00)

DEBRIS - Pass Details

Date: 01 October 2022
Orbit: 309 x 15045 km, 49.5° (Epoch: 04 December)

Event Time Altitude Azimuth Distance (km) Brightness Sun altitude
Rises 00:29:01 0° 110° (ESE) 15,325 10.2 -44.3°
Reaches altitude 10° 00:56:10 10° 95° (E) 17,357 10.6 -42.1°
Maximum altitude 01:53:30 18° 71° (ENE) 18,521 11.0 -35.7°
Drops below altitude 10° 02:41:52 10° 50° (NE) 16,496 11.2 -28.9°
Sets 03:01:18 0° 41° (NE) 15,133 11.1 -25.9°
